This is the latest recevied weather packets stored in our database for station/object APPOWX. If no packets are shown the sender has not sent any weather packets the latest 10 day(s).
| Time | Temp. | Humidity | Pressure | Rain* | Wind** | Luminosity | Snow |
|---|---|---|---|---|---|---|---|
| 1777301679 | 16.67° C | 50% | 1027 hPa | 0 mm | - | - | - |
| 1777301619 | 16.67° C | 52% | 1026.9 hPa | 0 mm | - | - | - |
| 1777301559 | 16.67° C | 53% | 1026.9 hPa | 0 mm | - | - | - |
| 1777301499 | 16.67° C | 58% | 1026.9 hPa | 0 mm | - | - | - |
| 1777301438 | 16.67° C | 55% | 1027.1 hPa | 0 mm | - | - | - |
| 1777301379 | 16.11° C | 56% | 1026.9 hPa | 0 mm | - | - | - |
| 1777301318 | 15.56° C | 57% | 1027.2 hPa | 0 mm | - | - | - |
| 1777301258 | 15.56° C | 57% | 1027.2 hPa | 0 mm | - | - | - |
| 1777301198 | 15.56° C | 56% | 1027.1 hPa | 0 mm | - | - | - |
| 1777301138 | 15° C | 57% | 1027 hPa | 0 mm | - | - | - |
| 1777301079 | 15° C | 58% | 1027 hPa | 0 mm | - | - | - |
| 1777301019 | 15° C | 57% | 1027 hPa | 0 mm | - | - | - |
| 1777300958 | 15° C | 57% | 1027 hPa | 0 mm | - | - | - |
| 1777300897 | 15° C | 57% | 1027.1 hPa | 0 mm | - | - | - |
| 1777300838 | 15.56° C | 62% | 1027 hPa | 0 mm | - | - | - |
| 1777300777 | 15.56° C | 60% | 1027.1 hPa | 0 mm | - | - | - |
| 1777300717 | 15.56° C | 60% | 1027.2 hPa | 0 mm | - | - | - |
| 1777300657 | 15.56° C | 61% | 1027.2 hPa | 0 mm | - | - | - |
| 1777300597 | 15° C | 65% | 1027 hPa | 0 mm | - | - | - |
| 1777300539 | 14.44° C | 62% | 1027.3 hPa | 0 mm | - | - | - |
| 1777300356 | 15° C | 63% | 1027 hPa | 0 mm | - | - | - |
| 1777300297 | 15° C | 63% | 1027 hPa | 0 mm | - | - | - |
| 1777300236 | 15° C | 63% | 1027.2 hPa | 0 mm | - | - | - |
| 1777300175 | 15.56° C | 60% | 1027.2 hPa | 0 mm | - | - | - |
| 1777300115 | 15.56° C | 62% | 1027.3 hPa | 0 mm | - | - | - |
* Rain latest hour (hover to see other rain measurements)
** Current wind speed in m/s (hover to see current wind gust speed)